TimeEST,TemperatureF,Dew PointF,Humidity,Sea Level PressureIn,VisibilityMPH,Wind Direction,Wind SpeedMPH,Gust SpeedMPH,PrecipitationIn,Events,Conditions,WindDirDegrees,DateUTC
12:53 AM,30.0,21.9,72,30.40,7.0,West,4.6,-,N/A,,Overcast,280,2013-01-07 05:53:00
1:53 AM,27.0,21.9,81,30.41,7.0,Calm,Calm,-,N/A,,Mostly Cloudy,0,2013-01-07 06:53:00
2:53 AM,24.1,21.0,88,30.43,6.0,Calm,Calm,-,N/A,,Clear,0,2013-01-07 07:53:00
3:53 AM,24.1,21.0,88,30.42,5.0,Calm,Calm,-,N/A,,Clear,0,2013-01-07 08:53:00
4:53 AM,23.0,21.0,92,30.44,4.0,Calm,Calm,-,N/A,,Clear,0,2013-01-07 09:53:00
5:53 AM,21.9,19.9,92,30.46,4.0,Calm,Calm,-,N/A,,Clear,0,2013-01-07 10:53:00
6:19 AM,21.2,19.4,93,30.45,2.5,Calm,Calm,-,N/A,,Clear,0,2013-01-07 11:19:00
6:45 AM,21.2,19.4,93,30.46,3.0,Calm,Calm,-,N/A,,Clear,0,2013-01-07 11:45:00
6:53 AM,21.9,21.0,96,30.49,3.0,Calm,Calm,-,N/A,,Clear,0,2013-01-07 11:53:00
7:53 AM,21.0,19.0,92,30.51,3.0,Calm,Calm,-,N/A,,Clear,0,2013-01-07 12:53:00
8:53 AM,21.9,21.0,96,30.53,3.0,Calm,Calm,-,N/A,,Clear,0,2013-01-07 13:53:00
9:53 AM,28.0,25.0,88,30.52,4.0,Calm,Calm,-,N/A,,Clear,0,2013-01-07 14:53:00
10:53 AM,30.9,26.1,82,30.51,4.0,Calm,Calm,-,N/A,,Haze,0,2013-01-07 15:53:00
11:53 AM,35.1,26.1,70,30.47,9.0,Variable,4.6,-,N/A,,Clear,0,2013-01-07 16:53:00
12:53 PM,37.9,25.0,60,30.44,10.0,SE,6.9,-,N/A,,Clear,140,2013-01-07 17:53:00
1:53 PM,39.0,25.0,57,30.41,10.0,South,8.1,-,N/A,,Clear,190,2013-01-07 18:53:00
2:53 PM,39.9,24.1,53,30.40,10.0,SW,6.9,-,N/A,,Clear,220,2013-01-07 19:53:00
3:53 PM,41.0,24.1,51,30.39,10.0,South,5.8,-,N/A,,Clear,190,2013-01-07 20:53:00
4:53 PM,39.0,25.0,57,30.37,10.0,South,6.9,-,N/A,,Clear,180,2013-01-07 21:53:00
5:53 PM,36.0,23.0,59,30.35,10.0,SSE,4.6,-,N/A,,Clear,160,2013-01-07 22:53:00
6:53 PM,30.9,25.0,79,30.35,10.0,Calm,Calm,-,N/A,,Clear,0,2013-01-07 23:53:00
7:53 PM,26.1,21.9,84,30.32,10.0,Calm,Calm,-,N/A,,Clear,0,2013-01-08 00:53:00
8:53 PM,25.0,21.9,88,30.32,10.0,Calm,Calm,-,N/A,,Clear,0,2013-01-08 01:53:00
9:53 PM,24.1,21.9,91,30.30,9.0,Calm,Calm,-,N/A,,Clear,0,2013-01-08 02:53:00
10:53 PM,21.0,19.9,96,30.31,6.0,Calm,Calm,-,N/A,,Clear,0,2013-01-08 03:53:00
11:53 PM,21.0,19.0,92,30.31,7.0,Calm,Calm,-,N/A,,Clear,0,2013-01-08 04:53:00